Location: Plainartige
(45.6866°N, 1.7993°E)
Time: 14:33:08
(UTC+00:00)

PSLV R/B - Pass Details

Date: 03 March 2021
Orbit: 566 x 599 km, 98.2° (Epoch: 11 April)

Event Time Altitude Azimuth Distance (km) Brightness Sun altitude
Rises 18:33:59 0° 14° (NNE) 2,806 7.3 -9.8°
Reaches altitude 10° 18:36:10 10° 16° (NNE) 1,897 6.4 -10.2°
Maximum altitude 18:40:16 77° 103° (ESE) 592 3.8 -10.9°
Drops below altitude 10° 18:44:19 10° 190° (S) 1,866 6.6 -11.6°
Sets 18:46:26 0° 192° (SSW) 2,755 7.5 -12.0°
